Weather in Konishevka

Russia / Kursk Oblast     51°50′31″N   35°17′29″E
temp.,
°C
wind,
m/s
gust,
m/s
humid.,
%
clouds,
%
prec.,
mm/h
press.,
hPa
HPBL,
m
4 march, thu
thu400:00−2w5119224 0.0 1019291
03:00−2wsw5109212 0.0 1017265
06:00−5sw511920 0.0 1015218
09:00−3sw614900 0.0 1012373
12:000sw712930 0.0 1010513
15:00+1sw71110027 0.0 1007501
18:00+1wsw71298100 0.0 1005630
21:00+1wsw51199100 0.1 1005359
5 march, fri
fri500:00+1w4999100 0.1 1005400
03:00−1wnw499498 0.1 1006268
06:00−1wnw489484 0.0 1008566
09:00−3nnw489180 0.0 1010287
12:00−1nnw238646 0.0 1011402
15:00−1nw228462 0.0 1012464
18:00−2w1288100 0.0 101321
21:00−3nnw2390100 0.0 101542
6 march, sat
sat600:00−4nnw2390100 0.0 101655
03:00−5nnw2392100 0.0 101771
06:00−6nw2391100 0.0 101685
09:00−5nw598699 0.1 1017601
12:00−4nw698190 0.0 1018988
15:00−3nw7117194 0.3 10181404
18:00−5nw5117949 0.1 1019653
21:00−7nw4108524 0.1 1022314
7 march, sun
sun700:00−7wnw38880 0.0 1022216
03:00−7wsw49880 0.0 1021243
06:00−7sw512832 0.0 1019367
09:00−5sw8157551 0.0 1016707
12:00−2wsw111772100 0.0 10131115
15:00−1wsw111877100 0.1 10091335
18:00−1wsw91678100 0.0 10081082
21:00−1wsw7168286 0.0 1008749
8 march, mon
mon800:00−2wsw7158782 0.0 1007663
03:00−2wsw8149290 0.1 1005798
06:00−2w81495100 0.3 1004843
09:00−3wnw7128298 0.9 10071093
12:00−4nw586587 0.0 1009934
15:00−4wnw356143 0.0 1011840
18:00−5nw23770 0.0 101248
21:00−7nnw12810 0.0 101322